sat.trackr.live / text

‹ back to catalog

RTU MIREA 1 (RS51S)

NORAD 61785 · 2024-199BC

PAYLOAD ACTIVE UNKNOWN

§ Identity

Operator
Country
CIS
Launch date
2024-11-04
Launch site
VOSTO
Launch vehicle
Mass (kg)
RCS (m²)

Purposes: comms

External: N2YO · Heavens-Above · Gunter

§ Orbital elements

Epoch: 2026-09-19T21:57:22.487904Z

Period
91.47 min
Inclination
97.2724°
Eccentricity
0.0002220
Mean motion
15.74231141 rev/d
Perigee alt
345.3 km
Apogee alt
348.3 km
Semi-major
6,725.0 km
B*
6.5575e-4
RAAN
143.0886°
Arg perigee
268.5131°
Mean anomaly
91.5879°
Rev number
14,930

§ Raw data

RTU MIREA 1 (RS51S)1 61785U 24199BC  26262.91484361  .00094781  00000+0  65575-3 0  99952 61785  97.2724 143.0886 0002220 268.5131  91.5879 15.74231141149307

JSON: /api/v1/satellites/61785 · /tle

For live sub-satellite position, see the globe view (requires WebGL).

§ Visibility from observer

Set your observer location to see the next 7 days of passes ≥ 10°. The values pass through the URL so the page stays shareable.

No JS? Fill the form by hand. The geolocation button needs JavaScript.

§ Radio — SatNOGS DB

ModeDescriptionDownlinkUplink
CW Mode U - CW Beacon 436.200 MHz
GFSK Mode U - GFSK9k6 - AX.25 Beacon and Telemetry (Geoscan framing) 436.200 MHz
QPSK Mode X - DVB-S2 10.473 GHz
SSTV Mode U - SSTV (inactive) 436.200 MHz

4 transmitters · refreshed weekly from db.satnogs.org